GFSGL_850_rhum_150.txt.gz
RH
42 42 42 45 37 32 21 14 16 15 36 71 72 77 80 82 78 73 73 73 76 78 79 78 76 79 79 76 75 89 99 99 100 98 94 100 94 93 100 100 100 100 98
39 39 40 45 44 35 30 18 13 12 22 55 70 70 75 75 76 77 82 84 81 80 82 82 77 75 80 81 82 84 83 86 95 100 100 100 100 100 100 100 100 99 92
38 40 42 41 46 38 35 28 15 12 12 30 67 76 73 77 86 86 83 78 57 61 70 73 75 77 73 77 82 80 81 81 83 98 100 100 100 100 100 100 95 72 44
43 45 42 40 45 44 40 36 27 14 12 11 21 67 79 86 85 80 72 54 31 70 65 79 89 89 87 74 75 82 79 81 87 90 94 99 97 96 88 38 14 12 11
41 38 38 44 46 48 45 40 36 27 14 12 12 18 50 79 76 58 28 23 33 51 34 37 47 56 66 56 38 25 28 43 35 26 23 23 20 18 18 15 12 13 13
37 33 33 39 48 53 51 46 41 37 30 15 11 12 14 16 17 18 16 17 17 18 18 18 18 17 16 14 13 12 10 10 10 11 11 13 15 14 13 13 13 13 14
30 28 29 29 31 41 51 54 48 42 39 32 19 12 12 13 13 16 17 15 16 16 18 17 16 15 13 12 11 10 10 11 11 12 13 14 14 16 16 16 16 16 16
28 30 30 30 33 43 54 56 54 49 44 42 36 24 13 13 14 15 15 15 15 14 15 16 15 15 15 14 12 12 12 12 14 14 15 16 16 17 17 17 18 18 19
42 33 30 34 34 33 46 52 55 56 52 48 44 39 29 16 13 15 15 14 14 13 13 14 16 14 16 15 15 14 14 16 16 17 17 18 18 19 20 20 20 20 18
44 41 37 38 38 33 34 46 54 59 56 55 51 47 43 34 20 15 17 17 15 14 14 14 15 16 16 17 15 15 16 16 17 18 18 18 20 21 22 23 24 23 22
45 45 46 42 41 37 36 39 43 53 60 60 59 55 51 47 40 29 17 16 16 16 16 15 16 16 16 17 18 18 17 18 20 20 21 20 21 22 25 28 29 28 28
53 50 49 48 45 40 40 37 43 50 54 60 66 63 58 53 48 40 29 19 18 18 17 18 19 18 19 19 19 19 21 22 22 22 25 27 26 27 30 31 32 31 32
55 51 55 52 45 38 32 34 48 55 59 60 65 65 63 62 58 52 44 31 22 20 20 20 21 20 21 22 20 21 23 24 27 26 29 31 31 33 34 34 32 34 36
55 49 52 45 39 40 40 40 43 52 62 65 66 64 60 61 64 62 55 46 34 25 22 24 24 23 24 27 27 26 26 28 31 28 30 30 29 34 38 36 33 34 36
57 48 40 40 40 46 48 48 49 46 55 62 64 71 74 72 66 68 66 59 50 38 27 29 29 29 29 29 29 31 34 36 35 32 30 28 30 38 42 36 34 37 38
58 47 44 43 46 43 44 48 59 60 57 61 65 78 78 82 84 81 78 71 62 48 36 30 30 32 32 33 32 35 39 41 41 40 34 30 37 43 43 37 41 41 42
51 49 48 46 43 43 43 47 43 46 51 56 61 63 65 71 88 90 86 81 74 61 47 38 34 32 33 36 37 39 40 44 51 51 45 38 46 40 41 42 46 45 47
50 47 48 46 45 46 48 52 57 56 51 48 58 59 63 67 71 87 94 92 88 75 64 50 41 37 37 38 42 48 51 53 53 56 51 39 47 40 39 45 47 49 55
61 68 75 77 74 70 70 67 63 59 59 58 58 67 74 79 85 85 98 99 97 91 77 67 58 48 46 51 82 90 61 67 64 69 56 44 49 42 43 50 53 55 64
90 94 75 77 82 91 92 91 85 74 76 78 78 78 76 82 87 92 94 100 100 95 92 85 73 65 86 74 94 97 96 96 95 87 96 68 53 46 48 54 57 65 71
88 94 98 99 87 81 79 75 81 87 91 91 90 92 98 100 100 100 100 100 100 100 100 98 92 98 97 97 97 98 97 97 96 91 97 68 58 52 52 58 65 72 74
97 89 83 86 86 90 82 80 82 82 83 92 98 96 97 97 96 98 100 99 100 100 100 100 98 98 98 98 98 98 97 96 91 96 96 78 63 57 58 66 70 77 80
100 95 87 82 82 83 75 73 77 81 86 90 94 96 99 100 100 100 100 100 100 99 100 100 100 98 97 99 97 98 96 93 96 98 95 81 68 63 67 72 78 88 97
99 100 99 95 87 80 79 83 71 74 85 88 95 95 97 100 98 97 98 99 100 98 98 99 98 98 98 98 98 97 97 97 97 96 88 78 78 73 71 80 90 99 98
72 87 86 86 90 91 85 87 87 78 81 87 91 92 94 95 98 94 95 96 98 98 98 98 98 98 97 98 97 97 97 97 97 95 86 88 86 87 80 92 98 98 96
64 64 67 66 67 82 94 94 93 89 83 86 92 92 92 95 95 93 93 93 95 97 97 97 97 97 97 97 97 97 97 96 90 71 75 88 90 84 94 98 93 83 78

GFSGL_850_rhum_156.txt.gz
RH
30 32 39 38 39 42 39 43 45 44 37 29 15 14 40 70 73 74 77 77 77 81 84 74 55 67 82 82 82 85 89 100 98 99 95 82 96 99 99 98 99 96 94
27 30 31 36 36 39 43 44 46 49 44 38 27 13 12 37 66 70 72 77 78 75 72 50 66 74 75 84 81 79 81 88 93 99 98 98 92 93 94 95 92 94 88
26 27 29 34 40 38 37 43 45 47 47 44 38 27 14 14 39 69 73 74 71 68 59 25 46 54 81 85 86 85 80 83 89 92 98 97 97 95 98 98 95 78 44
38 35 32 32 32 30 30 34 42 47 49 49 44 39 30 16 12 24 57 68 67 58 27 15 23 21 34 63 77 78 70 66 42 46 80 98 99 98 92 74 45 26 19
41 41 40 38 42 41 35 31 33 38 48 54 54 47 40 33 20 12 13 20 31 21 16 16 17 16 17 17 17 18 17 15 13 22 38 40 39 33 25 19 14 11 12
44 43 43 43 44 43 44 40 36 35 37 47 58 59 51 43 35 21 13 13 14 14 15 16 16 14 14 13 12 12 11 10 10 10 11 11 13 14 12 13 14 15 16
46 46 46 47 45 40 42 46 43 39 40 41 44 57 61 54 45 35 23 16 15 15 15 15 15 16 15 14 12 10 11 10 10 11 11 13 13 14 15 15 16 16 17
46 44 46 49 45 43 46 49 49 41 39 40 42 55 63 62 58 48 38 28 19 18 19 17 16 18 18 17 15 14 12 11 11 12 12 14 14 15 16 17 17 18 19
44 39 42 48 48 50 49 47 47 49 45 41 39 45 62 66 68 63 52 43 34 22 21 22 21 20 18 18 17 18 16 14 13 14 14 15 16 16 17 18 18 20 22
45 42 46 51 54 51 49 50 50 51 50 48 44 42 48 51 62 69 68 57 48 38 27 22 21 20 20 21 20 19 18 16 16 16 17 17 17 17 17 19 21 23 25
48 49 49 48 51 49 53 52 54 55 55 50 47 43 42 42 44 58 71 71 61 53 44 32 26 24 23 23 21 20 19 22 20 21 22 23 21 21 21 22 24 26 28
52 53 56 56 56 58 54 56 58 54 48 44 42 38 37 40 48 54 66 74 73 69 61 50 37 32 29 30 30 24 25 24 23 24 24 25 25 24 26 27 27 28 31
50 53 57 58 60 59 55 51 44 42 42 41 44 42 41 49 59 68 72 72 75 77 73 64 54 42 35 34 37 35 34 28 24 23 22 25 28 32 31 31 31 31 33
61 60 56 57 60 59 49 47 46 45 48 50 51 56 57 50 52 61 76 82 79 76 75 71 64 54 45 40 43 45 42 34 28 29 30 39 40 34 32 35 35 36 39
55 53 51 52 54 51 49 48 47 46 52 55 52 58 62 62 58 62 77 90 91 86 79 75 72 66 58 49 43 45 47 46 40 36 40 44 46 45 35 38 40 42 44
51 50 50 49 49 49 48 42 50 54 54 56 59 66 60 74 81 76 77 86 92 95 95 84 75 74 67 60 54 46 44 44 45 45 46 51 54 51 46 41 42 46 43
53 59 63 70 73 76 77 78 76 72 82 82 82 88 85 90 97 99 100 100 99 100 100 94 86 82 75 76 69 63 52 46 46 46 46 56 55 58 56 44 50 41 41
85 83 83 83 84 86 92 90 88 92 92 81 84 86 85 91 85 90 98 99 98 100 99 99 99 100 99 97 93 88 92 85 71 58 61 70 75 69 62 54 92 47 46
78 84 84 84 94 99 100 99 100 100 99 93 86 79 84 87 93 94 97 100 99 99 99 99 99 99 99 98 98 98 98 97 97 96 82 85 95 80 70 94 97 82 52
77 90 99 93 99 100 100 98 92 92 93 83 80 80 80 84 83 91 100 100 100 99 99 99 99 100 99 99 98 98 98 98 97 96 97 97 96 96 96 97 97 91 91
85 88 94 100 99 100 100 100 99 94 88 85 80 74 85 90 86 92 93 92 99 100 100 100 100 100 99 99 98 98 97 98 98 98 98 97 97 97 97 96 96 96 87
70 76 92 95 91 98 99 100 100 99 100 98 87 80 77 85 91 90 92 91 90 100 100 99 99 99 99 99 99 98 98 98 98 97 97 97 97 97 97 96 96 96 95
66 69 72 71 68 68 66 72 97 92 95 100 99 89 84 82 82 86 90 90 92 93 99 100 100 99 99 98 98 98 98 98 97 97 97 97 97 96 96 96 96 96 83
49 60 62 64 56 74 74 74 73 78 80 86 100 100 96 88 83 84 85 85 88 90 92 98 100 97 96 95 97 98 97 97 97 98 98 97 97 97 96 96 96 95 82
51 54 60 65 74 54 59 71 76 82 83 78 87 100 99 95 90 87 86 89 86 88 90 92 96 96 96 95 96 97 97 97 97 97 97 97 97 97 96 96 96 93 85
38 45 47 47 46 48 68 82 81 87 89 83 87 93 98 99 98 91 89 92 89 90 93 95 93 92 94 94 95 97 97 97 97 97 97 96 96 96 96 95 95 92 88

GFSGL_850_rhum_162.txt.gz
RH
41 42 41 38 32 32 33 37 41 40 42 44 48 49 49 45 39 24 17 50 71 79 84 88 84 78 62 55 74 84 93 96 98 86 86 91 96 92 86 87 96 88 82
38 39 41 42 42 41 37 36 35 33 34 37 43 50 48 49 47 40 29 17 30 56 74 82 78 75 58 35 56 80 86 91 88 84 84 86 92 87 86 86 91 80 83
40 41 41 42 42 42 42 42 41 43 43 38 36 39 48 54 56 53 45 35 20 17 42 70 78 75 47 25 34 42 81 88 89 85 82 80 68 61 87 91 95 96 92
42 41 40 39 40 41 42 43 43 43 43 42 43 38 38 41 52 60 60 51 40 27 17 18 31 42 30 26 30 30 32 41 59 67 64 51 29 37 76 96 92 91 52
39 39 38 37 38 40 42 44 45 44 42 39 40 45 41 42 44 48 61 67 59 45 31 21 18 21 20 19 20 21 20 18 16 16 16 16 18 28 52 63 55 34 19
34 37 37 36 36 35 35 35 37 39 41 42 46 49 48 44 44 48 55 64 69 63 48 36 24 18 17 18 21 21 20 18 15 14 13 12 12 13 16 20 19 15 15
41 42 41 40 39 38 36 35 38 40 43 44 46 48 49 50 47 47 54 60 70 72 67 52 40 29 21 20 22 22 21 19 16 14 12 12 13 15 16 17 17 18 17
48 47 49 49 46 45 44 45 45 44 42 43 45 49 50 48 51 52 54 58 64 68 72 69 56 45 35 28 27 24 24 23 21 17 14 14 14 15 17 18 18 19 18
48 47 48 49 46 45 44 46 49 48 48 49 51 54 55 52 58 58 63 63 63 60 69 72 69 60 51 41 33 26 26 24 26 21 18 16 16 16 16 18 18 19 20
47 47 49 53 54 52 52 54 55 56 53 53 52 54 51 47 48 52 58 62 61 58 57 60 72 72 66 55 44 34 28 23 30 26 24 20 19 18 18 19 19 19 20
50 50 51 54 54 53 50 54 58 59 53 49 46 45 45 45 42 43 45 45 46 49 48 48 56 72 75 68 58 48 37 31 37 34 31 25 21 21 22 22 22 21 21
52 51 49 50 52 51 51 51 54 54 51 48 46 44 48 53 53 50 52 53 52 53 48 54 61 69 76 75 70 62 53 44 38 41 42 34 28 24 24 29 31 30 29
52 54 48 46 47 47 46 46 45 47 46 44 43 40 38 41 44 50 52 58 63 65 63 63 64 68 75 79 81 74 64 53 43 44 40 38 35 34 44 42 36 36 35
54 55 55 63 65 71 73 75 70 68 63 58 56 57 61 63 69 68 60 60 69 76 81 79 76 79 80 79 80 82 72 60 52 51 49 48 53 49 44 44 45 45 44
54 54 66 73 72 71 70 71 72 79 88 84 83 85 86 79 77 81 83 87 90 92 98 98 98 97 94 88 89 96 90 79 72 66 71 81 62 61 54 52 50 53 51
36 54 67 80 75 77 80 76 76 82 84 98 99 98 95 93 87 81 80 84 88 91 97 99 98 98 100 100 100 99 98 99 97 98 98 97 95 85 73 62 72 78 72
26 33 59 73 85 84 86 86 76 66 75 84 90 88 85 83 85 86 82 78 78 89 100 100 99 99 100 100 100 99 99 99 99 98 98 97 97 97 96 91 89 88 91
20 24 48 64 65 76 87 86 88 100 98 76 84 92 91 84 80 77 82 82 82 85 98 99 100 100 100 99 100 99 99 98 98 98 98 98 98 97 97 95 96 96 96
26 23 26 44 64 76 81 89 92 88 100 99 86 78 86 83 80 80 76 84 92 89 86 80 81 86 88 94 99 99 99 98 98 98 98 98 97 98 97 97 97 97 96
19 25 29 25 24 27 39 54 70 81 80 88 95 87 83 92 72 63 72 80 85 92 94 92 91 93 97 96 97 100 99 99 98 98 98 98 97 97 98 97 97 96 96
25 25 30 34 31 28 32 45 50 68 81 75 70 68 69 79 75 74 73 82 87 88 89 92 94 93 97 99 99 99 99 99 98 99 98 98 98 97 97 97 97 97 97
36 32 28 35 41 44 52 56 57 55 67 80 69 66 76 81 79 82 88 80 90 90 90 90 92 93 94 100 100 99 99 100 100 100 98 97 97 97 97 97 97 97 97
49 48 48 46 47 52 58 59 60 63 66 74 82 77 74 76 81 82 93 98 94 95 89 87 88 92 97 100 100 99 100 100 100 100 99 98 97 97 97 97 97 97 96
59 59 67 67 62 60 53 46 48 56 59 60 65 73 74 81 84 85 89 100 100 99 92 89 91 96 90 94 100 100 100 100 98 98 99 97 97 97 97 97 97 97 97
69 73 77 75 73 69 62 48 43 48 51 54 58 58 63 87 93 92 92 98 99 99 96 88 94 89 81 85 93 98 98 96 97 95 95 96 98 97 98 97 97 97 97
78 80 82 80 79 78 59 50 47 41 39 47 65 89 77 82 89 90 96 96 99 99 98 92 89 85 83 83 92 94 96 94 92 94 95 97 97 96 97 97 97 96 96

GFSGL_850_rhum_165.txt.gz
RH
37 38 38 38 40 42 42 42 40 37 35 33 33 35 39 47 50 51 48 40 22 28 50 62 68 76 74 68 55 45 72 96 99 97 88 82 86 94 91 76 87 92 91
39 40 40 41 41 41 41 42 42 42 42 42 43 43 37 35 45 53 54 54 45 30 23 43 52 70 65 62 50 24 40 74 93 90 85 84 81 84 80 65 86 93 94
33 34 36 38 38 37 36 38 41 43 43 44 44 44 42 44 40 41 53 60 60 51 38 24 21 39 46 56 44 21 27 37 73 83 80 66 67 67 42 37 75 90 92
29 27 27 32 35 34 33 34 36 38 41 42 42 41 40 41 46 44 45 49 59 63 58 46 32 22 22 32 32 21 23 23 25 28 29 28 24 19 15 22 53 76 84
31 31 34 34 35 34 34 34 33 34 34 36 36 38 40 45 50 50 50 52 53 54 64 64 52 38 27 24 26 23 24 23 20 18 16 14 12 12 13 16 25 38 32
40 40 41 42 42 42 42 40 38 36 35 36 38 42 43 47 52 55 54 52 55 55 56 65 69 58 43 31 25 23 23 24 22 20 15 13 11 11 12 13 14 15 15
44 45 48 48 46 45 44 43 42 42 43 44 43 43 43 47 51 52 54 53 50 52 55 60 67 69 62 47 36 28 24 24 25 26 19 15 13 13 13 13 14 14 14
47 48 49 47 46 47 47 48 48 47 49 49 49 51 50 55 56 58 60 58 54 52 57 64 70 72 74 64 50 42 32 26 25 26 23 19 18 16 15 16 18 18 18
46 47 47 48 48 49 50 50 52 52 54 55 53 51 51 52 51 50 54 56 54 52 56 62 68 70 75 75 66 57 48 38 34 34 28 24 21 19 18 20 21 22 20
49 50 50 50 49 49 49 48 49 53 55 55 50 48 46 44 45 44 44 43 41 42 44 49 58 62 67 75 77 71 62 54 43 40 36 31 27 23 20 21 23 23 23
49 50 51 50 47 46 45 45 45 46 48 50 49 48 48 48 49 52 51 48 49 48 46 46 49 60 66 70 76 78 73 66 56 50 45 45 36 30 27 23 24 25 25
47 47 49 52 50 49 48 47 50 50 46 47 45 44 47 46 46 46 47 51 54 52 52 52 52 57 60 66 76 79 79 74 66 62 56 48 44 34 32 31 32 33 31
34 39 47 50 65 72 70 68 65 67 67 67 69 64 56 63 72 74 74 72 66 63 67 69 68 72 73 73 76 81 85 87 77 71 64 58 52 50 48 44 42 43 39
38 36 46 51 65 72 74 76 77 74 73 77 77 74 71 67 73 80 79 79 82 87 91 91 94 96 99 98 95 87 86 91 89 81 73 70 64 68 84 56 47 50 54
32 31 31 46 60 70 75 79 84 84 79 90 87 86 88 81 82 86 87 83 80 81 88 89 90 92 91 87 90 94 100 100 100 93 86 80 87 95 97 89 66 61 67
27 23 21 24 35 55 65 67 79 74 74 80 99 94 84 86 80 76 74 78 80 81 84 94 100 97 97 99 100 100 99 100 99 100 99 98 98 98 98 97 96 73 77
23 22 26 24 24 40 58 65 63 52 65 64 75 88 90 83 81 80 78 72 70 76 81 85 98 99 98 99 99 100 100 100 100 99 100 100 98 98 98 97 97 95 96
21 21 25 28 29 29 35 46 64 76 65 43 54 79 93 96 98 96 84 78 76 70 75 82 83 82 80 87 92 100 100 100 97 98 99 99 99 98 98 97 98 97 97
21 22 24 27 29 34 34 33 36 42 53 51 45 54 62 90 99 97 99 94 80 78 77 77 84 86 88 86 85 93 100 100 98 96 97 98 99 99 97 98 98 97 97
21 25 28 28 28 30 33 38 37 37 45 49 40 37 58 66 68 68 76 84 88 79 84 81 78 82 88 91 95 100 99 100 100 99 97 98 98 98 97 98 97 97 97
27 27 30 34 35 32 37 44 50 54 54 51 46 39 50 77 66 69 71 73 82 87 87 88 83 78 81 89 98 100 99 100 100 99 98 98 98 98 98 97 97 97 98
40 38 38 39 42 41 44 52 56 62 65 60 50 47 54 68 76 72 77 79 87 100 99 96 86 80 81 97 100 99 98 98 99 99 99 99 98 99 98 98 97 96 97
51 53 53 52 53 55 58 62 65 66 62 50 47 51 54 56 61 66 77 89 96 100 100 100 93 84 84 99 100 100 98 100 100 99 99 99 97 97 98 97 96 96 97
61 63 67 65 65 69 68 66 68 68 66 54 53 62 57 54 54 61 84 97 100 100 100 100 100 92 90 94 100 100 100 100 100 99 100 100 97 97 98 98 97 96 97
70 73 80 83 76 74 77 76 76 76 65 54 54 60 75 78 64 74 94 98 98 99 99 99 100 96 93 96 95 100 100 100 93 98 100 100 99 96 97 98 98 96 96
79 82 85 86 86 89 90 90 90 84 62 57 56 75 100 100 100 96 100 99 99 99 96 99 100 100 94 89 87 88 99 94 92 90 98 100 97 97 97 97 97 97 96